{"data":{"norad_id":68896,"epoch":"2026-09-19T19:00:56.967264Z","epoch_age_seconds":76522,"freshness":"FRESH","line1":"1 68896U 26097B   26262.79232601  .00012161  00000+0  37847-3 0  9991","line2":"2 68896  97.2834  96.9502 0002296  87.5921 272.5585 15.33437672 21989","mean_motion":15.33437672,"eccentricity":0.0002296,"inclination_deg":97.2834,"raan_deg":96.9502,"arg_perigee_deg":87.5921,"mean_anomaly_deg":272.5585,"bstar":0.00037847,"rev_number":2198,"period_min":93.906653416299,"perigee_km":463.99366356323,"apogee_km":467.13629151131,"semimajor_km":6843.7019775373,"source":"CELESTRAK","updated_at":"2026-09-20T09:00:44.045720Z"}}